WESTFORD NEEDLES *, 3267

Orbit data source: Space-Track

WESTFORD NEEDLES *, 3267 is space debris in LEO originally from a launch on Thu, 09 May 1963 UTC launched from the Air Force Western Test Range (AFWTR). Debris objects in space refer to the collection of defunct objects orbiting the Earth. Examples of debris include non-operational satellites, rocket bodies, and fragments generated from explosions, collisions, or faulty payload assembly.

Loading next visibility...
Identifier
3267, 1963-014CF
Orbit
LEO
Last TLE update
22 hours ago
Origin
Manufacturer
RCA Victor
Mission
Spacecraft
Bus & Motor
Unknown
Mass
Unknown
Launch date (UTC)
1963-05-09 (62 years ago)
Launch vehicle
Unknown
Launch site
Air Force Western Test Range (AFWTR)
Object type
Payload
Rocket body
Debris
Shape & HBR
Unknown
Radar Cross Section
Small (<0.1 m²)

Expand to show TLE details & history

TLE from 22 hours ago
0 WESTFORD NEEDLES *
1 03267U 63014CF  25185.80876572  .00000238  00000-0  15423-3 0  9997
2 03267  88.3908 120.8374 1688841 117.9509 260.2638 11.33888097502966
Epoch: 2025-07-04T19:24Z
TLE epoch observation values (Epoch: 2025-07-04T19:24:37.358Z)
Latitude
-0.00008°
Longitude
-93.3741°
Altitude
2,451.678 km
Speed
6.534 km/s
True Right ascension
08h 03m 20s
True Declination
0° 00' 00"
Sunlit
Object was in daylight at epoch
Visualization orbit readout
Latitude
-52.04527°
Longitude
88.5745°
Altitude
2,417.991 km
Speed
6.566 km/s
Apparent Right ascension
18h 59m 19s
Apparent Declination
-48° 22' 37"
Sunlit
Object is in full shadow
Visualization observer readout
Local Sidereal Time
05:39:34
Azimuth
232.678° WSW
Elevation
-73.452°
Doppler factor
1
Orbital elements
Apogee altitude
3,401.39 km
Perigee altitude
575.436 km
Semi-major axis
8,366.55 km
Eccentricity
0.16888
Inclination
88.3908°
RAAN
120.8374°
Arg. of periapsis
117.9509°
True anomaly
Unknown
Mean anomaly
260.2638°
Eccentric anomaly
Unknown
Mean motion
2.83611 °/min
Orbital period
126.93 mins
BSTAR
0.00015423
Loading maneuver chart data...
Loading SW <> Apogee altitude chart data...

WESTFORD NEEDLES * Visibility forecast

Observer location: undefined°, undefined°

Span
Click to sort rows by Start time (UTC) header in descending order
Start Az.
Max El. time (UTC)
Max El. Az.
Max El.
End time (UTC)
End Az.
13 mins2025-07-05 18:48:08.945Z138.454° SSE2025-07-05 18:56:08.945Z86.363° E27.223°2025-07-05 19:01:08.945Z31.553° NE
15 mins2025-07-05 20:54:08.945Z203.405° SW2025-07-05 21:03:08.945Z269.371° W35.169°2025-07-05 21:09:08.945Z341.5° N
8 mins2025-07-06 08:02:08.945Z355.847° N2025-07-06 08:05:08.945Z249.063° W44.386°2025-07-06 08:10:08.945Z185.359° SSW
|